Wind_Speed
61 63 62 60 62 61 57 55 52 53 56 51 52 52 48 47 44 43 44 44 42 39 38 41 42 43 43 42 43 43 43 43 42 41 42 42 42 42 41 45 47 44 42 41
57 56 52 55 57 60 59 56 54 56 55 55 53 53 51 49 48 47 47 46 45 44 41 41 43 44 43 43 44 47 46 47 47 46 45 46 46 45 42 42 45 45 44 42
47 50 48 47 45 48 49 48 49 54 57 53 56 56 54 51 50 49 47 47 46 45 43 42 42 43 43 44 46 47 48 48 49 50 49 48 47 46 43 41 43 43 44 44
44 48 48 42 44 49 48 47 50 52 53 52 58 62 55 49 49 49 48 47 47 45 42 41 44 42 40 39 40 41 43 45 48 51 50 49 48 47 46 45 44 44 45 45
46 46 44 49 44 45 50 51 50 50 52 55 57 62 61 52 50 49 46 45 44 44 42 40 40 41 41 40 39 39 40 42 43 45 48 47 48 48 48 46 45 46 46 43
47 51 48 47 47 50 52 50 50 54 53 58 52 54 60 55 54 51 49 47 44 44 44 42 41 42 42 40 42 40 38 39 40 42 43 43 43 44 44 43 43 43 43 43
49 49 54 51 49 50 51 49 48 47 55 62 59 57 59 56 54 52 49 47 47 45 44 45 43 44 44 42 42 41 42 42 42 42 43 43 43 41 42 42 42 43 44 44
51 52 49 50 53 53 53 51 50 53 52 55 58 62 63 59 55 53 50 47 47 43 41 42 43 43 44 44 43 43 43 42 43 43 43 44 44 43 42 43 44 44 46 48
49 50 50 48 51 52 53 55 53 53 52 51 53 53 55 56 54 51 49 50 48 45 43 42 42 42 42 42 44 45 43 42 41 42 42 43 44 44 44 45 46 46 49 49
56 53 51 48 50 50 51 50 51 51 51 51 53 52 52 50 48 48 47 44 43 43 41 41 42 43 43 42 43 43 44 44 43 43 44 45 46 47 48 49 50 51 54 55
51 54 54 51 49 44 45 47 46 47 49 51 53 53 54 54 53 49 48 49 46 42 41 40 42 43 43 43 44 46 47 47 48 48 48 49 51 52 54 55 56 58 59 60
49 52 53 53 53 49 47 45 45 47 48 50 51 52 53 54 53 50 48 46 46 47 46 45 44 45 46 46 47 47 47 48 49 50 52 53 55 56 58 58 58 57 58 58
45 52 53 53 53 51 54 53 51 47 46 48 51 52 48 49 51 52 50 51 51 50 48 48 50 50 51 51 49 50 51 51 51 52 53 55 56 57 57 59 59 59 59 60
45 48 48 47 46 46 46 46 45 48 52 53 53 49 51 49 50 49 48 52 52 51 52 53 50 51 50 52 52 52 51 51 52 53 54 55 55 56 58 59 60 62 63 63
45 46 46 47 48 48 49 50 48 49 50 53 49 53 51 51 53 53 50 49 52 53 53 53 54 52 49 49 52 53 53 52 53 55 57 57 59 62 63 65 65 66 67 66
41 40 48 52 47 49 53 53 50 50 51 55 53 55 49 52 52 53 52 53 55 53 51 54 55 57 57 55 55 57 57 57 57 57 57 57 59 58 58 58 58 58 58 59
46 43 42 44 44 48 54 48 50 49 48 49 53 50 48 51 51 51 55 59 59 56 57 58 58 59 60 59 56 55 55 55 54 56 55 54 54 55 56 55 55 55 57 58
42 44 45 46 51 52 48 47 47 48 49 51 54 53 52 52 51 54 55 57 57 56 56 56 54 53 53 53 53 50 48 49 50 51 52 52 52 54 56 57 58 58 58 58
34 40 43 44 47 48 49 45 45 47 50 47 50 51 48 48 49 50 48 50 54 55 53 54 53 50 50 52 53 52 52 52 51 51 52 52 53 55 56 56 57 56 57 57
38 40 38 39 41 43 26 25 34 40 49 41 37 42 46 46 54 54 54 57 58 55 55 55 55 54 53 53 53 53 53 55 55 55 56 58 58 58 58 56 56 56 54 52
41 45 42 40 43 43 29 32 35 44 39 30 41 44 46 50 53 55 55 55 54 54 55 56 57 57 57 58 59 60 60 61 61 61 63 62 61 58 55 54 53 51 49 49
36 33 38 36 46 46 29 36 38 34 33 40 46 49 48 50 49 50 52 54 53 51 49 51 52 53 54 54 55 56 58 59 60 60 54 51 54 55 50 49 49 50 48 47
45 38 37 33 39 33 38 40 39 39 41 42 44 45 47 47 47 47 47 46 47 48 49 48 46 46 46 49 51 51 47 45 47 46 45 44 45 48 52 50 48 46 47 47
45 45 44 41 33 35 42 45 43 40 44 47 48 54 54 54 53 52 51 53 55 51 49 52 51 48 42 41 43 42 42 42 46 46 46 45 46 45 48 51 52 51 52 52
41 43 47 52 46 48 45 47 53 53 51 49 49 52 53 54 53 54 53 55 58 60 57 55 55 49 48 43 43 41 42 43 41 43 44 45 47 49 51 55 54 52 51 51
30 33 35 32 37 45 46 48 50 52 51 52 53 53 55 57 55 54 50 51 55 57 60 59 58 52 50 53 50 50 49 46 46 47 50 46 47 48 45 44 44 45 46 48
Wind_Direction
228 231 234 235 236 236 237 239 243 243 245 245 248 249 250 254 253 256 258 261 259 257 256 257 260 263 264 266 269 270 270 271 268 269 273 271 268 265 269 275 275 275 275 276
229 228 230 233 236 238 236 237 240 244 244 246 247 248 250 252 254 254 256 259 262 262 261 257 259 261 264 267 268 269 270 270 271 269 268 270 272 271 270 270 273 276 276 276
232 231 229 230 230 236 236 236 237 241 243 245 248 249 249 250 254 257 258 258 259 261 263 262 260 261 262 263 263 264 266 267 269 270 270 269 270 270 271 268 270 274 275 275
228 232 227 231 234 232 232 234 237 239 242 246 245 247 248 250 252 256 259 260 262 262 263 261 263 264 264 264 264 263 264 264 267 269 269 269 267 271 270 268 270 273 274 275
230 233 237 227 234 240 243 241 244 246 250 250 250 252 249 251 252 254 258 261 262 263 264 264 262 263 264 265 266 265 264 265 266 266 266 265 264 264 265 268 269 270 272 273
235 232 232 235 238 242 246 250 253 249 249 250 251 255 253 253 252 253 257 259 263 265 266 264 264 263 263 265 267 263 261 261 262 263 263 262 261 261 262 264 264 267 268 270
237 237 235 238 239 243 245 246 253 257 253 250 252 250 254 259 263 263 261 260 260 260 262 263 263 265 266 263 261 261 261 260 260 260 261 262 263 263 265 266 266 267 269 270
237 239 240 242 244 246 246 248 251 253 254 254 252 251 253 257 263 265 269 268 267 265 264 264 263 263 263 262 258 259 259 259 260 262 263 264 265 266 265 266 268 269 271 271
244 243 242 244 245 246 246 250 252 255 258 260 259 255 256 259 261 264 267 268 267 267 265 263 261 261 261 260 260 261 261 261 260 261 263 263 265 265 265 268 269 271 271 273
242 245 244 242 244 245 248 248 252 254 258 259 261 265 263 261 261 262 263 267 266 264 264 262 260 260 260 258 259 261 263 264 265 265 265 267 268 270 271 272 272 272 273 273
245 246 246 245 244 248 248 250 251 253 253 256 258 260 263 264 264 265 266 265 267 266 262 262 262 263 263 263 263 263 264 266 268 269 270 271 272 272 273 273 273 274 275 277
242 247 250 251 246 244 245 247 248 250 250 252 255 256 262 266 268 267 264 265 265 267 267 266 265 266 267 266 265 267 268 269 271 272 273 273 274 275 275 276 277 278 279 280
236 243 246 250 252 250 248 246 249 250 251 249 251 255 253 260 263 265 266 266 266 267 268 268 268 267 268 269 269 269 271 271 271 270 271 272 274 276 278 280 280 280 280 280
234 236 238 243 252 249 249 250 249 251 249 250 250 251 255 258 263 264 264 264 267 272 271 272 269 269 268 268 269 270 270 270 271 271 271 273 276 277 277 277 277 278 279 280
237 237 239 242 241 244 248 251 250 249 252 251 250 252 252 259 263 266 270 269 267 268 271 271 271 269 266 266 266 267 269 270 271 272 273 275 276 276 277 278 278 279 280 281
240 240 237 238 238 240 244 246 245 250 252 255 256 256 261 260 263 265 267 269 267 267 269 271 274 273 272 271 270 270 272 274 274 276 277 277 276 276 275 276 277 278 279 280
235 239 237 239 240 243 243 247 253 252 253 255 254 257 254 256 260 264 265 266 269 270 270 271 272 274 275 276 277 277 277 276 275 274 274 273 274 274 274 276 278 279 280 280
241 245 247 247 244 248 247 246 250 254 254 255 258 258 260 261 260 261 263 267 267 267 269 270 271 272 274 274 275 272 271 270 270 271 272 273 274 275 276 277 278 278 279 280
239 244 248 254 256 255 252 251 260 263 257 255 258 262 264 265 263 258 262 262 263 266 267 268 269 268 268 270 271 271 271 270 269 270 270 272 273 274 275 277 278 278 279 281
228 230 238 245 252 255 253 253 256 258 260 261 270 262 260 258 259 261 261 261 263 264 266 269 270 269 267 266 266 267 269 272 273 273 274 274 274 275 276 277 277 278 279 279
230 236 247 254 258 259 254 253 254 255 268 263 258 263 263 264 265 265 266 267 269 269 269 270 271 271 272 273 273 272 271 272 273 273 274 276 277 278 280 280 279 273 275 274
229 225 233 245 252 256 259 252 253 264 259 260 259 264 265 262 265 267 267 266 268 270 272 273 275 276 277 279 278 278 279 278 278 278 280 279 278 275 273 273 272 271 273 274
237 243 243 253 251 253 250 253 255 257 264 267 269 270 269 267 265 270 266 268 273 277 279 275 279 279 280 283 283 285 284 283 283 281 280 278 271 268 264 265 272 270 273 275
257 254 250 266 248 254 255 255 255 262 264 264 266 265 266 265 265 265 267 269 271 274 277 271 274 272 281 285 287 283 279 277 276 274 273 275 275 271 266 266 265 265 268 271
266 266 266 266 264 257 258 258 264 267 268 267 266 266 267 268 268 266 265 262 267 275 273 274 271 267 273 277 275 282 280 275 275 275 275 275 275 271 267 264 265 268 271 275
269 259 257 261 258 257 255 261 264 266 265 267 269 269 271 272 272 271 272 272 269 266 263 265 263 267 273 275 276 274 279 286 281 279 275 271 271 272 270 272 275 275 278 279
Height
5732 5739 5748 5755 5759 5761 5769 5774 5777 5779 5782 5790 5793 5795 5803 5805 5810 5814 5816 5817 5820 5825 5828 5827 5828 5828 5829 5832 5833 5834 5835 5837 5838 5839 5839 5840 5840 5842 5843 5839 5839 5840 5840 5840
5723 5731 5737 5741 5747 5751 5758 5764 5768 5770 5774 5779 5783 5786 5793 5797 5800 5803 5806 5809 5811 5814 5817 5820 5819 5821 5823 5825 5826 5826 5826 5826 5826 5828 5830 5829 5830 5832 5834 5834 5832 5832 5832 5832
5713 5721 5726 5732 5738 5743 5749 5753 5757 5761 5765 5770 5772 5777 5783 5789 5791 5795 5798 5801 5802 5804 5807 5810 5812 5812 5814 5815 5816 5817 5817 5817 5817 5818 5819 5821 5820 5822 5824 5824 5824 5824 5823 5823
5706 5711 5718 5726 5730 5734 5738 5743 5747 5751 5755 5760 5763 5766 5773 5780 5784 5785 5787 5790 5792 5796 5798 5800 5800 5803 5804 5806 5805 5807 5807 5807 5807 5807 5809 5810 5811 5811 5812 5812 5814 5815 5815 5813
5700 5704 5712 5717 5723 5726 5728 5736 5740 5743 5745 5748 5754 5755 5764 5770 5774 5776 5778 5781 5783 5785 5787 5790 5792 5793 5794 5795 5796 5798 5798 5798 5798 5798 5798 5800 5801 5801 5800 5802 5803 5802 5803 5804
5691 5697 5705 5710 5714 5717 5721 5726 5730 5733 5735 5737 5747 5748 5748 5759 5764 5768 5770 5773 5775 5776 5778 5779 5781 5783 5783 5784 5786 5787 5789 5789 5788 5789 5789 5790 5790 5790 5791 5791 5792 5792 5792 5792
5684 5691 5698 5702 5706 5709 5715 5719 5720 5723 5724 5729 5734 5739 5739 5745 5748 5753 5759 5762 5764 5766 5768 5769 5771 5773 5775 5774 5776 5777 5778 5778 5778 5779 5780 5781 5782 5781 5781 5782 5782 5782 5782 5781
5675 5682 5689 5694 5699 5701 5705 5708 5711 5711 5715 5718 5722 5726 5731 5736 5740 5742 5745 5749 5752 5755 5757 5759 5761 5761 5763 5764 5765 5765 5766 5767 5769 5770 5771 5772 5772 5772 5772 5772 5772 5771 5772 5772
5668 5670 5677 5684 5686 5691 5694 5696 5703 5705 5708 5710 5712 5718 5722 5725 5730 5733 5734 5737 5741 5743 5746 5747 5749 5750 5751 5753 5755 5755 5756 5758 5758 5760 5761 5762 5762 5762 5762 5761 5762 5761 5761 5760
5655 5660 5665 5671 5674 5679 5684 5689 5692 5696 5700 5703 5705 5707 5712 5716 5719 5722 5724 5725 5727 5731 5735 5736 5737 5739 5741 5743 5745 5746 5747 5747 5748 5749 5750 5751 5751 5752 5751 5751 5750 5749 5748 5747
5647 5649 5656 5660 5666 5671 5674 5678 5683 5686 5689 5692 5696 5699 5701 5704 5706 5711 5714 5716 5717 5720 5723 5725 5726 5728 5730 5731 5734 5735 5737 5737 5738 5738 5739 5739 5739 5739 5738 5737 5736 5736 5735 5735
5639 5639 5643 5650 5655 5658 5662 5667 5670 5674 5680 5683 5686 5692 5693 5694 5696 5701 5703 5705 5706 5708 5711 5713 5715 5717 5718 5720 5722 5724 5725 5725 5726 5727 5726 5726 5725 5724 5723 5723 5722 5721 5720 5719
5628 5628 5632 5637 5642 5646 5650 5659 5661 5665 5666 5674 5676 5683 5686 5684 5685 5687 5690 5693 5696 5697 5699 5701 5703 5705 5706 5707 5708 5710 5712 5713 5713 5712 5712 5712 5712 5711 5711 5710 5708 5707 5706 5704
5614 5617 5622 5629 5632 5638 5640 5645 5650 5651 5654 5666 5667 5674 5671 5675 5675 5676 5677 5679 5682 5683 5685 5687 5690 5692 5693 5694 5695 5696 5696 5697 5697 5698 5698 5698 5698 5697 5697 5696 5695 5693 5691 5689
5604 5608 5614 5619 5621 5624 5630 5633 5636 5639 5652 5645 5663 5659 5667 5666 5662 5663 5669 5671 5669 5670 5671 5671 5672 5675 5680 5681 5681 5681 5681 5682 5683 5684 5683 5683 5682 5682 5681 5679 5678 5676 5674 5672
5596 5599 5602 5606 5612 5613 5615 5619 5627 5634 5640 5637 5647 5647 5657 5655 5653 5655 5656 5654 5651 5659 5661 5658 5657 5659 5661 5665 5667 5668 5668 5668 5668 5668 5667 5668 5668 5667 5665 5664 5662 5660 5659 5656
5588 5590 5593 5594 5602 5602 5599 5612 5618 5620 5627 5630 5628 5639 5639 5641 5643 5646 5641 5636 5640 5646 5644 5643 5646 5646 5646 5649 5651 5653 5654 5654 5654 5654 5654 5653 5652 5651 5649 5648 5647 5646 5644 5641
5579 5581 5582 5587 5588 5583 5597 5603 5605 5608 5614 5616 5615 5624 5630 5629 5630 5626 5625 5625 5627 5628 5629 5630 5632 5634 5634 5636 5637 5638 5639 5639 5639 5639 5640 5639 5638 5638 5636 5635 5634 5631 5629 5627
5570 5572 5574 5575 5577 5581 5585 5598 5600 5598 5600 5603 5604 5614 5616 5613 5611 5611 5614 5613 5610 5614 5616 5615 5617 5621 5622 5623 5624 5624 5624 5625 5626 5626 5625 5625 5624 5623 5622 5620 5619 5616 5614 5613
5561 5563 5565 5567 5567 5569 5586 5590 5587 5585 5576 5597 5599 5596 5596 5595 5590 5599 5598 5597 5599 5603 5603 5603 5603 5605 5607 5609 5610 5610 5611 5610 5610 5610 5611 5609 5608 5606 5605 5604 5603 5602 5600 5599
5551 5554 5556 5558 5558 5562 5579 5576 5575 5569 5583 5590 5582 5580 5583 5583 5582 5584 5588 5585 5586 5588 5588 5589 5589 5590 5590 5591 5592 5593 5594 5594 5594 5593 5592 5591 5590 5590 5589 5588 5588 5587 5586 5585
5543 5544 5547 5549 5550 5553 5576 5563 5563 5569 5564 5569 5566 5566 5571 5574 5573 5573 5575 5574 5573 5574 5575 5575 5575 5575 5575 5575 5575 5575 5576 5576 5576 5576 5576 5576 5575 5575 5575 5575 5574 5573 5572 5570
5532 5538 5539 5540 5543 5555 5552 5551 5552 5555 5555 5555 5556 5556 5557 5562 5564 5562 5564 5562 5562 5563 5563 5563 5562 5562 5562 5561 5560 5560 5560 5561 5560 5560 5560 5560 5560 5559 5559 5559 5559 5559 5558 5556
5525 5527 5528 5529 5542 5543 5540 5540 5540 5541 5542 5544 5546 5542 5544 5547 5551 5552 5551 5551 5550 5549 5549 5549 5549 5549 5549 5548 5548 5547 5546 5546 5546 5546 5545 5545 5545 5545 5545 5544 5543 5542 5542 5541
5516 5516 5519 5519 5529 5526 5530 5528 5527 5528 5528 5530 5530 5529 5529 5530 5535 5535 5538 5536 5536 5535 5534 5534 5535 5535 5535 5535 5535 5534 5533 5532 5531 5531 5531 5531 5531 5531 5530 5529 5528 5527 5526 5526
5507 5507 5505 5509 5510 5506 5514 5514 5512 5513 5516 5515 5514 5516 5515 5514 5518 5517 5520 5519 5519 5518 5518 5519 5519 5519 5520 5519 5520 5521 5521 5520 5518 5517 5517 5517 5517 5517 5516 5515 5514 5514 5513 5512